{"data":{"norad_id":62285,"intl_designator":"2024-237U","name":"STARLINK-33550","alt_names":[],"object_type":"PAYLOAD","status":"ACTIVE","operator":null,"country":"US","launch_date":"2024-12-08","launch_site_code":"AFETR","launch_vehicle":null,"mission":null,"orbit_class":"UNKNOWN","rcs_meters":null,"size_class":null,"mass_kg":null,"dimensions":null,"purposes":["comms"],"wikipedia_slug":null,"has_3d_model":false,"image_url":null,"decayed_at":null,"tle_current":{"epoch":"2026-09-21T04:51:12.181248Z","epoch_age_seconds":117013,"freshness":"FRESH","line1":"1 62285U 24237U   26264.20222432  .00013558  00000+0  50089-3 0  9994","line2":"2 62285  43.0003 192.1569 0001702 271.4827  88.5829 15.27606138101099","mean_motion":15.27606138,"eccentricity":0.0001702,"inclination_deg":43.0003,"raan_deg":192.1569,"arg_perigee_deg":271.4827,"mean_anomaly_deg":88.5829,"bstar":0.00050089,"rev_number":10109,"period_min":94.265135768916,"perigee_km":481.80307002777,"apogee_km":484.1385911333,"semimajor_km":6861.1078305805,"source":"CELESTRAK","updated_at":"2026-09-22T09:00:49.569380Z"}}}